Vertical_Velocity
-1 -1 0 0 -0 -0 0 -1 -0 0 -2 -0 -1 -1 -2 1 0 -1 -1 0 1 -1 -2 -1 -2 -2 -2 -2 -1 -1 -1 -2 -3 1 -3 -0 -1 -1 0 -0 0 -1 -0 -2 -1
-0 -0 -1 -0 0 -0 -1 -1 -1 -1 -2 -0 -2 -1 -1 1 -0 -1 -1 0 -1 -1 -1 -1 -3 -2 -2 -1 -0 -1 1 0 -1 -1 -3 -2 -2 -1 1 -0 -1 -0 -1 -0 1
0 -0 -1 -1 -1 -2 -2 1 -0 -1 -1 -0 -2 -1 -2 0 0 -2 -1 -0 -1 -1 -1 -1 -1 -1 -1 -1 -0 0 -0 -1 0 1 3 1 -2 -4 -1 -4 -2 -0 -0 -0 -1
-1 -1 -2 -0 -1 -1 0 1 -1 -2 -0 0 -1 -1 -0 1 -0 -1 -1 -1 -2 -1 -1 -2 -1 -1 -1 -2 -2 -3 -0 -0 -1 -1 -1 1 5 3 1 -1 -2 -1 -0 0 0
0 -0 -0 -1 0 -0 -1 -1 -0 -1 -0 0 -0 0 1 2 -1 -2 -1 -1 -0 -0 0 -1 -1 0 0 -1 -1 0 0 -1 -1 0 1 2 -1 -1 -3 -1 -1 -2 -2 -2 -2
0 1 1 0 1 0 2 1 -3 1 0 1 2 1 0 -1 -1 -1 -1 -0 -1 0 -1 0 -2 -1 -2 -1 -0 -1 -1 -1 -1 -1 -1 1 2 7 -2 2 0 -1 -1 -1 0
1 1 -1 -2 -0 -0 -1 -1 0 1 1 1 0 -0 0 -0 -1 -1 -1 -1 -0 -1 -1 -1 -1 0 1 1 -0 1 -2 -2 -2 0 -3 2 -5 -7 -1 -1 0 1 0 -1 -2
-1 -2 -0 0 0 -2 -3 -3 -2 -2 1 1 1 0 -2 1 -0 -1 -0 -0 -1 -0 -1 0 -0 -0 1 0 -1 -0 -1 2 -5 1 -1 6 3 -5 -1 1 0 -0 -1 -1 -1
0 1 -1 -0 -1 -2 -3 -2 -1 0 0 -1 -0 1 -0 0 0 -0 1 -1 -2 0 -1 -1 0 0 1 0 -0 -1 4 -2 -3 -2 0 2 3 2 0 -2 -1 0 1 1 -0
-0 -0 -1 -1 -1 -3 -0 -0 -1 -0 0 -1 1 1 -1 1 1 -0 0 0 -1 1 -0 -1 0 -0 0 0 2 2 -1 -2 -1 -5 -2 -1 4 -1 -1 -0 0 -2 -2 -1 -1
1 0 -2 -1 -1 -3 0 -1 -2 0 1 -0 1 3 0 -0 2 1 1 1 -1 -0 -1 -1 0 -0 -0 -0 0 1 1 1 2 -3 -3 -2 0 -7 1 -0 -1 1 1 1 0
1 1 1 1 -1 -1 1 0 1 -1 -4 -1 1 1 0 -1 1 1 1 2 0 -2 -3 -2 -0 -0 -0 -1 0 1 2 2 -0 -0 -1 -1 -2 0 -1 -2 -1 0 1 1 -1
-1 -1 0 -0 1 1 -2 -1 -0 -1 1 -1 0 1 0 1 1 0 1 0 0 1 -0 2 -2 0 -0 1 0 -0 -0 0 2 -0 -5 -1 -11 -2 1 1 0 -0 -1 -2 -1
-0 1 1 1 -0 -1 -1 -1 -1 0 -1 0 1 1 0 1 1 -1 -2 2 -1 -2 -1 -2 -3 -0 -1 -0 -1 2 -2 -0 -1 -1 2 1 -22 -1 -2 3 0 1 1 1 2
-1 2 -1 -1 0 1 -1 -1 -2 0 2 -1 0 2 1 2 6 -5 -2 -6 -1 -2 2 -3 -2 -1 -1 -1 -0 -4 -1 -2 -3 0 -2 3 2 -6 8 -1 -1 -1 -3 -2 -2
-1 -2 -2 -2 -0 -1 -1 -1 -1 -0 -3 -0 0 1 1 -1 -2 -1 -2 -2 -1 -4 -2 -1 1 1 1 0 -0 -0 -2 -4 -1 2 5 1 2 -6 4 -1 -4 -2 -4 -4 -2
-1 -1 -1 -1 2 3 0 -3 -2 1 -2 -0 1 -1 -1 -6 -7 -4 -1 -2 -2 -5 -3 1 -3 -0 0 1 -0 -0 -0 -2 5 5 -3 -2 3 -23 -2 3 0 -2 -3 -2 -3
-3 -1 1 -2 -5 -2 -2 3 2 -0 -0 0 -2 -4 -3 -1 -4 -3 -4 -4 -1 0 -1 -0 0 -4 -1 -3 -0 1 -5 -4 -0 2 -5 15 -6 -3 1 -1 -5 -5 -0 -1 -2
1 -4 -1 5 2 -3 -1 -2 -5 -1 -2 -2 -4 -2 -3 -3 -1 -2 -5 -3 -3 -2 -6 -1 -2 -0 -2 1 1 0 -4 -0 1 -5 9 -9 -8 -7 -2 -9 -6 -3 -2 -0 1
1 -6 -3 0 0 4 3 1 -1 1 -0 -1 -1 -2 -1 -3 -1 -2 -3 -1 -3 -3 -0 -0 -6 -6 -1 5 -2 1 4 1 -2 2 -1 -6 -3 -13 -7 -5 -1 -3 -3 -0 -0
4 2 -4 -5 1 2 0 1 -1 -0 0 -1 -1 -2 -0 1 0 -2 -3 -3 1 -1 1 -1 3 -0 -0 -6 1 1 0 -1 3 9 3 0 -23 -3 -3 -5 -3 1 2 -1 -1
3 2 6 -6 -1 -1 -1 2 2 2 1 0 -1 -0 -0 2 -0 -0 -2 -4 -1 1 -2 -2 1 -4 -1 -5 -1 0 1 11 13 -8 -5 7 -49 -17 -10 -4 1 4 1 -0 -2
0 1 -1 2 -6 2 2 0 -0 0 1 -1 -1 -0 0 1 -3 -0 -0 -1 0 -1 0 1 5 -3 4 1 -0 -4 -5 6 3 12 -16 21 -43 -6 -0 -4 2 3 -0 1 -1
4 2 -1 1 1 3 0 1 -1 -0 -2 -2 -1 -1 2 0 -1 0 0 3 1 -1 -1 6 0 -9 -10 -14 8 3 0 -1 13 18 -17 -13 -15 -13 1 1 4 0 -0 -0 -1
6 -3 -7 -6 3 5 7 4 1 2 -0 2 -2 -2 3 3 -1 -4 2 5 2 -0 0 4 1 4 0 -1 3 -6 3 7 6 -10 20 -32 3 -8 -4 4 -1 1 1 1 -1
9 13 3 5 -2 4 1 -3 1 2 2 2 -2 4 1 -4 4 -1 5 -0 -0 2 -1 4 -16 5 -12 -1 -1 -2 -0 2 8 -7 5 10 -16 -2 7 3 7 6 1 -1 -1
2 3 5 -5 -3 2 -1 1 -0 1 0 1 1 1 -1 1 -2 -1 1 2 -1 -3 -2 8 4 8 -25 3 6 -11 1 1 -3 4 4 2 6 -1 -2 -2 4 1 -1 -2 -1
Height
3161 3160 3160 3160 3161 3161 3160 3159 3159 3159 3160 3160 3160 3159 3159 3159 3161 3161 3161 3162 3162 3162 3163 3164 3164 3164 3165 3165 3165 3166 3167 3167 3167 3168 3168 3168 3169 3170 3170 3170 3170 3170 3169 3169 3169
3161 3161 3160 3160 3159 3159 3159 3158 3157 3157 3159 3159 3158 3157 3157 3158 3160 3159 3160 3160 3161 3161 3162 3163 3163 3163 3164 3164 3165 3165 3166 3165 3166 3166 3166 3166 3167 3167 3168 3167 3167 3166 3166 3166 3166
3161 3160 3159 3158 3158 3157 3157 3156 3156 3157 3157 3157 3156 3156 3157 3157 3159 3158 3158 3158 3159 3160 3161 3161 3162 3162 3162 3162 3163 3163 3163 3164 3164 3164 3164 3164 3163 3164 3164 3164 3164 3164 3163 3163 3163
3160 3158 3157 3156 3155 3154 3155 3155 3156 3155 3154 3154 3155 3155 3156 3156 3158 3156 3156 3156 3157 3158 3159 3159 3160 3160 3160 3160 3160 3161 3160 3161 3161 3161 3161 3160 3160 3160 3160 3161 3161 3160 3159 3159 3159
3158 3156 3156 3155 3154 3154 3154 3154 3152 3151 3151 3152 3153 3154 3154 3154 3154 3153 3153 3154 3155 3155 3155 3156 3157 3157 3156 3156 3157 3156 3157 3158 3158 3158 3157 3156 3156 3155 3154 3155 3155 3155 3154 3153 3153
3158 3156 3155 3154 3153 3153 3152 3151 3149 3150 3150 3151 3151 3151 3152 3152 3151 3150 3150 3151 3151 3151 3152 3152 3153 3153 3153 3152 3153 3153 3153 3153 3153 3153 3152 3152 3151 3150 3150 3149 3149 3149 3148 3147 3146
3157 3155 3154 3153 3153 3152 3152 3151 3150 3149 3149 3149 3149 3149 3149 3150 3147 3147 3148 3147 3148 3148 3148 3148 3149 3149 3149 3148 3148 3148 3148 3149 3149 3149 3147 3146 3144 3142 3143 3143 3142 3141 3141 3141 3141
3156 3154 3154 3153 3153 3152 3151 3150 3149 3148 3147 3147 3147 3147 3146 3145 3144 3144 3144 3144 3144 3144 3145 3145 3145 3145 3144 3144 3143 3144 3144 3144 3142 3143 3141 3142 3139 3136 3136 3136 3135 3134 3133 3133 3132
3156 3155 3153 3153 3152 3150 3150 3149 3148 3148 3146 3145 3145 3143 3143 3142 3141 3141 3141 3141 3141 3141 3141 3141 3141 3141 3141 3140 3140 3139 3139 3138 3138 3138 3136 3136 3131 3130 3129 3128 3127 3126 3124 3123 3123
3154 3153 3152 3151 3150 3150 3149 3149 3148 3147 3145 3143 3141 3142 3140 3139 3137 3137 3136 3136 3137 3137 3137 3138 3138 3137 3137 3137 3137 3135 3134 3131 3133 3131 3130 3128 3125 3123 3121 3120 3118 3117 3117 3116 3114
3152 3151 3151 3150 3149 3149 3148 3148 3149 3146 3142 3140 3139 3136 3135 3134 3132 3131 3131 3132 3133 3135 3135 3135 3136 3135 3133 3133 3132 3129 3128 3126 3126 3124 3122 3121 3118 3112 3113 3111 3110 3109 3107 3106 3106
3150 3149 3148 3148 3147 3146 3145 3144 3143 3142 3137 3134 3132 3131 3129 3129 3129 3129 3131 3132 3132 3131 3131 3132 3130 3128 3127 3127 3126 3124 3122 3121 3119 3116 3115 3112 3107 3106 3103 3101 3100 3100 3099 3098 3098
3147 3146 3145 3145 3144 3144 3142 3142 3139 3137 3135 3130 3127 3127 3128 3128 3127 3127 3129 3128 3128 3126 3126 3126 3124 3121 3121 3121 3120 3118 3118 3117 3116 3111 3108 3103 3092 3093 3090 3090 3091 3090 3091 3092 3091
3144 3143 3143 3142 3144 3140 3139 3138 3136 3134 3129 3127 3124 3124 3125 3124 3125 3125 3124 3126 3124 3122 3122 3120 3117 3116 3115 3115 3115 3113 3111 3110 3109 3110 3109 3103 3092 3093 3085 3083 3083 3083 3085 3085 3084
3141 3140 3139 3138 3137 3137 3136 3134 3133 3131 3127 3125 3122 3122 3122 3124 3123 3120 3120 3119 3118 3116 3119 3115 3112 3110 3109 3109 3108 3108 3106 3105 3104 3103 3102 3100 3101 3070 3077 3076 3077 3078 3078 3079 3079
3136 3135 3135 3134 3133 3133 3131 3130 3129 3130 3121 3120 3119 3119 3119 3118 3118 3115 3116 3115 3113 3111 3109 3108 3105 3104 3102 3101 3102 3102 3102 3101 3098 3098 3093 3086 3091 3067 3072 3071 3071 3072 3072 3073 3072
3131 3129 3129 3129 3128 3127 3126 3127 3128 3122 3120 3118 3116 3116 3115 3114 3112 3110 3109 3108 3109 3108 3102 3102 3099 3097 3097 3096 3097 3098 3100 3100 3091 3090 3081 3078 3080 3066 3067 3067 3067 3067 3067 3067 3065
3125 3124 3123 3122 3121 3120 3122 3124 3123 3116 3114 3113 3113 3111 3109 3108 3105 3104 3103 3101 3100 3100 3099 3096 3092 3092 3092 3093 3094 3094 3097 3099 3086 3074 3073 3076 3065 3060 3061 3062 3062 3062 3059 3057 3056
3117 3117 3116 3116 3115 3114 3118 3118 3114 3112 3110 3109 3107 3103 3102 3102 3103 3098 3095 3094 3092 3093 3098 3094 3089 3087 3087 3087 3089 3087 3088 3089 3086 3081 3078 3064 3059 3058 3056 3057 3057 3056 3054 3052 3051
3110 3110 3110 3109 3110 3111 3112 3108 3106 3106 3104 3103 3102 3100 3097 3096 3096 3094 3089 3087 3087 3088 3087 3087 3086 3080 3080 3080 3080 3082 3082 3083 3085 3075 3060 3049 3052 3051 3051 3052 3052 3050 3048 3047 3045
3106 3102 3104 3104 3105 3105 3102 3100 3099 3099 3098 3098 3094 3093 3091 3090 3087 3087 3085 3084 3081 3082 3083 3083 3082 3077 3074 3072 3073 3075 3072 3072 3071 3066 3055 3047 3039 3044 3046 3046 3046 3044 3042 3040 3037
3099 3097 3096 3096 3099 3096 3094 3093 3092 3090 3090 3088 3086 3085 3084 3082 3079 3079 3077 3077 3076 3076 3077 3077 3074 3068 3067 3065 3066 3064 3063 3065 3061 3054 3048 3045 3030 3040 3041 3040 3038 3036 3034 3032 3031
3091 3090 3089 3088 3088 3087 3086 3085 3084 3083 3083 3079 3078 3077 3076 3076 3078 3071 3069 3069 3069 3071 3070 3069 3066 3063 3055 3056 3056 3054 3054 3053 3051 3047 3038 3037 3025 3033 3033 3032 3030 3028 3027 3024 3022
3083 3081 3080 3078 3078 3078 3078 3076 3075 3074 3073 3072 3070 3069 3069 3067 3068 3066 3063 3063 3062 3063 3064 3063 3059 3056 3048 3046 3052 3047 3046 3045 3043 3036 3030 3023 3022 3026 3025 3023 3021 3019 3018 3016 3013
3072 3069 3068 3069 3069 3069 3069 3067 3067 3067 3063 3062 3060 3062 3062 3060 3059 3057 3057 3056 3056 3056 3057 3056 3046 3049 3038 3040 3039 3034 3032 3034 3027 3023 3021 3014 3014 3015 3014 3012 3010 3008 3007 3005 3003
3060 3061 3058 3058 3060 3061 3059 3058 3058 3058 3057 3054 3054 3054 3053 3053 3054 3052 3050 3049 3047 3046 3047 3045 3035 3038 3024 3032 3030 3021 3021 3017 3015 3011 3008 3005 3002 3003 3002 3000 2998 2997 2997 2995 2993
3048 3049 3047 3046 3046 3050 3050 3050 3048 3049 3047 3047 3047 3046 3046 3047 3045 3043 3041 3039 3038 3036 3037 3036 3031 3030 3014 3023 3018 3011 3011 3008 3006 3003 3001 2998 2997 2993 2992 2991 2990 2989 2988 2986 2985